Location: Newark
(42.9260°N, 89.3850°W)
Time: 08:54:03
(UTC+00:00)

STARLINK 1055 - Pass Details

Date: 12 December 2019
Orbit: 549 x 550 km, 53.0° (Epoch: 24 January)

Event Time Altitude Azimuth Distance (km) Brightness Sun altitude
Exits shadow 11:38:34 33° 252° (WSW) 971 4.4 -17.7°
Maximum altitude 11:39:24 36° 226° (SW) 906 4.4 -17.5°
Drops below altitude 10° 11:43:11 11° 159° (SSE) 1,820 6.8 -16.9°
Sets 11:45:38 0° 151° (SSE) 2,746 7.9 -16.4°
